Weather History for Valparaiso, IN

Change the Weather History Date:

Sunday, June 8, 2014

  Actual Average Record
Temperature  
Mean Temperature 58 °F 67 °F  
Max Temperature 65 °F 78 °F 96 °F (2011)
Min Temperature 51 °F 56 °F 43 °F (1998)
Degree Days  
Heating Degree Days 7 2  
Month to date heating degree days 14 22  
Since 1 June heating degree days 14 22  
Since 1 July heating degree days 7205 6301  
Cooling Degree Days 0 4  
Month to date cooling degree days 33 29  
Year to date cooling degree days 106 76  
Since 1 June cooling degree days 33 29  
Growing Degree Days 8 (Base 50)    
Moisture  
Dew Point 52 °F    
Average Humidity 83    
Maximum Humidity 93    
Minimum Humidity 72    
Precipitation  
Precipitation 0.48 in 0.13 in 0.48 in (2014)
Month to date precipitation 1.52 1.08  
Year to date precipitation 10.45 14.06  
Sea Level Pressure  
Sea Level Pressure 29.94 in    
Wind  
Wind Speed 8 mph (NNW)    
Max Wind Speed 16 mph    
Max Gust Speed 25 mph    
Visibility 9 miles    
Events Rain    
T = Trace of Precipitation, MM = Missing Value Source: NWS Daily Summary

Daily Weather History Graph

Daily Weather History Graph

Search for Another Location

Airport:

Trip Planner

Search our weather history database for the weather conditions in past years. The results will help you decide how hot, cold, wet, or windy it might be!

Date:

Astronomy

Jun. 08, 2014 Rise Set
Actual Time 5:14 AM CDT 8:20 PM CDT
Civil Twilight 4:40 AM CDT 8:53 PM CDT
Nautical Twilight 3:57 AM CDT 9:36 PM CDT
Astronomical Twilight 3:06 AM CDT 10:27 PM CDT
Moon 3:35 PM CDT (6/8) 2:10 AM CDT (6/8)
Length of Visible Light 16h 13m
Length of Day
15h 05m
Waxing Gibbous, 77% of the Moon is Illuminated
Jun 8
Waxing Gibbous
Jun 12
Full
Jun 19
Last Quarter
Jun 27
New
Jul 5
First Quarter

Hourly Weather History & Observations

Time (CDT) Temp. Dew Point Humidity Pressure Visibility Wind Dir Wind Speed Gust Speed Precip Events Conditions
12:53 AM 64.9 °F 61.0 °F 87% 29.81 in 8.0 mi NW 8.1 mph - 0.03 in Rain Light Rain
1:53 AM 57.9 °F 54.0 °F 87% 29.80 in 6.0 mi NNW 11.5 mph - 0.14 in Rain Rain
2:53 AM 57.0 °F 54.0 °F 89% 29.81 in 5.0 mi North 12.7 mph 19.6 mph 0.15 in Rain Rain
3:53 AM 57.0 °F 54.0 °F 89% 29.83 in 6.0 mi NNE 10.4 mph - 0.13 in Rain Rain
4:53 AM 57.0 °F 55.0 °F 93% 29.83 in 10.0 mi North 5.8 mph - 0.07 in Rain Light Rain
5:07 AM 57.0 °F 55.0 °F 93% 29.85 in 10.0 mi NNW 11.5 mph 18.4 mph 0.00 in Rain Light Rain
5:17 AM 57.9 °F 55.9 °F 93% 29.85 in 9.0 mi North 12.7 mph 19.6 mph 0.00 in Rain Light Rain
5:53 AM 57.9 °F 55.9 °F 93% 29.85 in 8.0 mi Variable 6.9 mph - 0.00 in   Overcast
6:53 AM 57.0 °F 55.0 °F 93% 29.86 in 7.0 mi North 9.2 mph - N/A   Clear
7:53 AM 57.9 °F 54.0 °F 87% 29.90 in 9.0 mi NNW 10.4 mph - N/A   Mostly Cloudy
8:29 AM 55.0 °F 52.0 °F 89% 29.95 in 10.0 mi WNW 16.1 mph - N/A   Mostly Cloudy
8:53 AM 55.0 °F 52.0 °F 89% 29.95 in 9.0 mi NW 11.5 mph 18.4 mph N/A   Overcast
9:07 AM 55.0 °F 51.1 °F 86% 29.94 in 10.0 mi NW 8.1 mph - N/A   Overcast
9:53 AM 59.0 °F 54.0 °F 83% 29.94 in 10.0 mi NW 11.5 mph - N/A   Partly Cloudy
10:53 AM 60.1 °F 53.1 °F 78% 29.96 in 10.0 mi NNW 9.2 mph 18.4 mph N/A   Clear
11:53 AM 59.0 °F 53.1 °F 81% 29.97 in 10.0 mi NNW 11.5 mph - N/A   Partly Cloudy
12:53 PM 59.0 °F 52.0 °F 78% 29.99 in 10.0 mi NNW 12.7 mph 21.9 mph N/A   Clear
1:53 PM 62.1 °F 53.1 °F 72% 30.00 in 10.0 mi NNW 11.5 mph 19.6 mph N/A   Clear
2:53 PM 59.0 °F 52.0 °F 78% 30.01 in 10.0 mi North 12.7 mph 18.4 mph N/A   Scattered Clouds
3:22 PM 57.9 °F 51.1 °F 78% 30.01 in 10.0 mi NNW 10.4 mph 20.7 mph N/A   Scattered Clouds
3:53 PM 59.0 °F 51.1 °F 75% 30.01 in 10.0 mi NNW 13.8 mph - N/A   Clear
4:53 PM 60.1 °F 51.1 °F 72% 30.00 in 10.0 mi NNW 10.4 mph 20.7 mph N/A   Clear
5:53 PM 57.9 °F 50.0 °F 75% 30.01 in 10.0 mi North 9.2 mph 18.4 mph N/A   Clear
6:53 PM 57.0 °F 48.9 °F 74% 30.01 in 10.0 mi NNW 8.1 mph - N/A   Clear
7:53 PM 54.0 °F 48.0 °F 80% 30.02 in 10.0 mi Variable 4.6 mph - N/A   Clear
8:53 PM 53.1 °F 46.9 °F 80% 30.02 in 10.0 mi NW 5.8 mph - N/A   Clear
9:53 PM 52.0 °F 46.0 °F 80% 30.04 in 10.0 mi NNW 3.5 mph - N/A   Clear
10:53 PM 52.0 °F 46.9 °F 83% 30.04 in 10.0 mi NW 3.5 mph - N/A   Clear
11:53 PM 52.0 °F 46.9 °F 83% 30.04 in 10.0 mi Calm Calm - N/A   Clear